Weather in Nedaivoda

Ukraine / Dnipropetrovsk Region     48°08′38″N   33°21′56″E
temp.,
°C
wind,
m/s
gust,
m/s
humid.,
%
clouds,
%
prec.,
mm/h
press.,
hPa
HPBL,
m
17 april, sat
sat1700:00+5sw6985100 0.1 1016971
03:00+5sw5892100 0.3 1017818
06:00+5wsw588790 0.1 1018628
09:00+6wsw577132 0.1 1019684
12:00+11w7105364 0.0 10201655
15:00+10w6955100 0.0 10201597
18:00+10wnw3661100 0.0 1020826
21:00+8wnw2268100 0.0 102036
18 april, sun
sun1800:00+8nnw2272100 0.0 102039
03:00+6s117749 0.0 102011
06:00+5ssw11835 0.0 101910
09:00+9ssw235895 0.0 1019485
12:00+13ssw444316 0.0 10181375
15:00+15ssw443537 0.0 10171951
18:00+14sw3440100 0.0 1016628
21:00+12ssw1248100 0.0 101621
19 april, mon
mon1900:00+10w2258100 0.0 101611
03:00+8nnw2273100 0.0 101627
06:00+6n349342 0.0 101679
09:00+10nne337142 0.0 1015417
12:00+14ne2152100 0.0 10141241
15:00+15nne1144100 0.1 10121627
18:00+14ne2356100 0.0 1012100
21:00+11nne5867100 0.0 1011278
20 april, tue
tue2000:00+10nne51170100 0.0 1008388
03:00+9ne5982100 0.5 1006329
06:00+9ne71395100 7.2 1001563
09:00+9ne91695100 17.4 997866
12:00+9ne61096100 7.5 996611
15:00+9n5694100 8.3 995473
18:00+8nw81393100 3.6 997851
21:00+8wnw71387100 6.3 1002998
21 april, wed
wed2100:00+8w71386100 0.1 1005524
03:00+6wsw61191100 0.1 1009290
06:00+5wsw51192100 0.0 1011296
09:00+8wsw5875100 0.0 1013585
12:00+12wsw585591 0.0 10141547
15:00+13wsw465680 0.0 10151377
18:00+12sw356895 0.6 1016379
21:00+9ssw23839 1.0 101725